San Diego Montgomery, CA

2:55 AM PDT on April 26, 2017 (GMT -0700)
Montgomery

Weather History for KMYF - February, 2013

Change the Weather History Date:

Saturday, February 2, 2013

  Actual Average Record
Temperature  
Mean Temperature 65 °F 55 °F  
Max Temperature 78 °F 65 °F 82 °F (2000)
Min Temperature 52 °F 45 °F 36 °F (2016)
Degree Days  
Heating Degree Days 0 10  
Month to date heating degree days 20  
Since 1 July heating degree days 836  
Cooling Degree Days 0 0  
Month to date cooling degree days 0  
Year to date cooling degree days 2  
Growing Degree Days 15 (Base 50)    
Moisture  
Dew Point 44 °F    
Average Humidity 52    
Maximum Humidity 75    
Minimum Humidity 26    
Precipitation  
Precipitation 0.01 in 0.05 in 0.28 in (2004)
Month to date precipitation 0.09  
Year to date precipitation 2.77  
Sea Level Pressure  
Sea Level Pressure 30.14 in    
Wind  
Wind Speed 3 mph (NNW)    
Max Wind Speed 9 mph    
Max Gust Speed -    
Visibility 10 miles    
Events Rain    
T = Trace of Precipitation, MM = Missing Value Source: NWS Daily Summary

Daily Weather History Graph

Daily Weather History Graph

Search for Another Location

Airport or City:

Trip Planner

Search our weather history database for the weather conditions in past years. The results will help you decide how hot, cold, wet, or windy it might be!

Date:

Astronomy

Feb. 02, 2013 Rise Set
Actual Time 6:42 AM PST 5:22 PM PST
Civil Twilight 6:16 AM PST 5:48 PM PST
Nautical Twilight 5:47 AM PST 6:17 PM PST
Astronomical Twilight 5:18 AM PST 6:46 PM PST
Moon No Moon Rise 10:21 AM PST (2/2)
Length of Visible Light 11h 31m
Length of Day
10h 39m
Waning Gibbous, 58% of the Moon is Illuminated
Feb 2
Waning Gibbous
Feb 3
Last Quarter
Feb 9
New
Feb 17
First Quarter
Feb 25
Full

Hourly Weather History & Observations

Time (PST) Temp. Dew Point Humidity Pressure Visibility Wind Dir Wind Speed Gust Speed Precip Events Conditions
12:53 AM 57.9 °F 43.0 °F 58% 30.15 in 10.0 mi Calm Calm - N/A   Clear
1:53 AM 55.9 °F 43.0 °F 62% 30.16 in 10.0 mi SW 3.5 mph - N/A   Clear
2:53 AM 53.1 °F 43.0 °F 69% 30.15 in 10.0 mi NNE 3.5 mph - N/A   Clear
4:53 AM 53.1 °F 42.1 °F 66% 30.14 in 10.0 mi NE 4.6 mph - N/A   Clear
5:53 AM 53.1 °F 42.1 °F 66% 30.14 in 10.0 mi Calm Calm - N/A   Clear
6:53 AM 52.0 °F 42.1 °F 69% 30.16 in 10.0 mi Calm Calm - N/A   Clear
7:53 AM 57.9 °F 43.0 °F 58% 30.17 in 10.0 mi Calm Calm - N/A   Clear
8:53 AM 66.9 °F 41.0 °F 39% 30.18 in 10.0 mi Calm Calm - N/A   Clear
9:53 AM 71.1 °F 39.0 °F 31% 30.18 in 10.0 mi Calm Calm - N/A   Clear
10:53 AM 73.9 °F 37.9 °F 27% 30.17 in 10.0 mi Variable 3.5 mph - N/A   Clear
11:53 AM 75.0 °F 37.9 °F 26% 30.14 in 10.0 mi WSW 3.5 mph - N/A   Clear
12:53 PM 78.1 °F 41.0 °F 27% 30.10 in 10.0 mi WNW 6.9 mph - N/A   Clear
1:53 PM 71.1 °F 39.9 °F 32% 30.09 in 10.0 mi NW 9.2 mph - N/A   Partly Cloudy
2:53 PM 66.9 °F 43.0 °F 42% 30.10 in 10.0 mi NW 8.1 mph - N/A   Mostly Cloudy
3:53 PM 66.9 °F 45.0 °F 45% 30.09 in 10.0 mi North 5.8 mph - N/A   Overcast
4:53 PM 66.9 °F 44.1 °F 44% 30.12 in 10.0 mi NW 6.9 mph - N/A   Overcast
5:53 PM 63.0 °F 45.0 °F 52% 30.12 in 8.0 mi North 6.9 mph - N/A   Overcast
6:53 PM 62.1 °F 48.0 °F 60% 30.16 in 8.0 mi NW 5.8 mph - N/A   Overcast
7:53 PM 62.1 °F 48.9 °F 62% 30.16 in 9.0 mi Calm Calm - N/A   Overcast
8:53 PM 61.0 °F 48.0 °F 62% 30.15 in 10.0 mi NNE 3.5 mph - N/A   Mostly Cloudy
9:53 PM 61.0 °F 48.0 °F 62% 30.14 in 10.0 mi NNW 3.5 mph - N/A   Overcast
10:53 PM 60.1 °F 52.0 °F 75% 30.13 in 10.0 mi NNW 3.5 mph - 0.00 in Rain Light Rain
11:53 PM 60.1 °F 51.1 °F 72% 30.12 in 10.0 mi Calm Calm - 0.01 in   Overcast